STARLINK-2518, 48333

Orbit data source: Space-Track

STARLINK-2518, 48333 is a payload satellite owned by SpaceX/Seattle (US) in LEO that was launched on Thu, 29 Apr 2021 UTC via an FALCON 9 launch vehicle from the Air Force Eastern Test Range (AFETR). Payload-class satellites include a variety of spacecraft equipped with specific instruments for various scientific and technological missions. These include communications satellites like Starlink; space stations such as the ISS; scientific satellites like the Hubble; Earth observation satellites from companies like Planet Labs, Umbra, and HawkEye 360; GPS; miniature CubeSats for education and research; and military/defense satellites.

Loading next visibility...
Identifier
48333, 2021-036BK
Orbit
LEO
Country
Flag of USUS
Related business
Manufacturer
SpaceX/Seattle
Mission
Operational Commercial Communications
Bus & Motor
STARLINK, Unknown motor
Mass
260 kg wet, ~248 kg dry
Launch date (UTC)
2021-04-29 (4 years ago)
Launch vehicle
FALCON 9
Launch site
Air Force Eastern Test Range (AFETR)
Object type
Payload
Rocket body
Debris
Shape & HBR
Box + 1 Pan, 10.1 m
Radar Cross Section
13.562 m², Large (>1 m²)

Expand to show TLE details & history
Last TLE update: 14 hours ago

TLE from 14 hours ago
0 STARLINK-2518
1 48333U 21036BK  25291.28993153  .00000145  00000-0  28626-4 0  9990
2 48333  53.0553  20.8741 0001408  84.5367 275.5783 15.06401664246576
Epoch: 2025-10-18T06:57Z
TLE epoch observation values (Epoch: 2025-10-18T06:57:30.084Z)
Latitude
0.00003°
Longitude
-110.52431°
Altitude
547.991 km
Speed
7.589 km/s
True Right ascension
01h 23m 29s
True Declination
0° 00' 00"
Sunlit
Object was in full shadow at epoch
Visualization orbit readout
Latitude
Unknown
Longitude
Unknown
Altitude
Unknown
Speed
Unknown
Apparent Right ascension
Unknown
Apparent Declination
Unknown
Sunlit
N/A
Visualization observer readout
Local Sidereal Time
15:38:29
Azimuth
Unknown
Elevation
Unknown
Doppler factor
Unknown
Orbital elements
Apogee altitude
548.452 km
Perigee altitude
546.502 km
Semi-major axis
6,925.614 km
Eccentricity
0.00014
Inclination
53.0553°
RAAN
20.8741°
Arg. of periapsis
84.5367°
True anomaly
275.56224°
Mean anomaly
275.5783°
Eccentric anomaly
275.57027°
Mean motion
3.76579 °/min
Orbital period
95.6 mins
BSTAR
0.000028626
Loading maneuver chart data...
Computing Atmospheric mass density...
Loading historical data...
Loading historical data...
Loading historical data...
Loading historical data...
Loading historical data...
Loading historical data...
Loading historical data...

Documentation

Showing up to 5 results
|